Weather History for Stillwater, OK

Change the Weather History Date:

Tuesday, January 7, 2014

  Actual Average Record
Temperature  
Mean Temperature 28 °F -  
Max Temperature 50 °F 45 °F 78 °F (2006)
Min Temperature 5 °F 24 °F 5 °F (2014)
Degree Days  
Heating Degree Days 38    
Moisture  
Dew Point 11 °F    
Average Humidity 50    
Maximum Humidity 84    
Minimum Humidity 25    
Precipitation  
Precipitation 0.00 in - - ()
Sea Level Pressure  
Sea Level Pressure 30.28 in    
Wind  
Wind Speed 8 mph (South)    
Max Wind Speed 20 mph    
Max Gust Speed 29 mph    
Visibility 10 miles    
Events      
Averages and records for this station are not official NWS values.
T = Trace of Precipitation, MM = Missing Value Source: NWS Daily Summary

Daily Weather History Graph

Daily Weather History Graph

Search for Another Location

Airport:

Trip Planner

Search our weather history database for the weather conditions in past years. The results will help you decide how hot, cold, wet, or windy it might be!

Date:

Astronomy

Jan. 07, 2014 Rise Set
Actual Time 7:39 AM CST 5:29 PM CST
Civil Twilight 7:11 AM CST 5:58 PM CST
Nautical Twilight 6:39 AM CST 6:30 PM CST
Astronomical Twilight 6:08 AM CST 7:01 PM CST
Moon 11:42 AM CST (1/7) No Moon Set
Length of Visible Light 10h 46m
Length of Day
9h 49m
Waxing Crescent, 46% of the Moon is Illuminated
Jan 7
Waxing Crescent
Jan 7
First Quarter
Jan 15
Full
Jan 23
Last Quarter
Jan 30
New

Hourly Weather History & Observations

Time (CST) Temp. Windchill Dew Point Humidity Pressure Visibility Wind Dir Wind Speed Gust Speed Precip Events Conditions
12:53 AM 9.0 °F 0.6 °F -0.0 °F 67% 30.45 in 10.0 mi SSE 4.6 mph - N/A   Clear
1:53 AM 8.1 °F -0.5 °F -0.0 °F 70% 30.44 in 10.0 mi SE 4.6 mph - N/A   Clear
2:53 AM 9.0 °F 0.6 °F 1.0 °F 70% 30.43 in 10.0 mi SE 4.6 mph - N/A   Clear
3:53 AM 9.0 °F 0.6 °F 1.9 °F 73% 30.41 in 10.0 mi SE 4.6 mph - N/A   Clear
4:53 AM 9.0 °F 2.4 °F 1.9 °F 73% 30.39 in 10.0 mi SE 3.5 mph - N/A   Clear
5:53 AM 5.0 °F - 1.0 °F 84% 30.37 in 10.0 mi Calm Calm - N/A   Clear
6:53 AM 12.0 °F 2.7 °F 5.0 °F 73% 30.37 in 10.0 mi South 5.8 mph - N/A   Clear
7:53 AM 15.1 °F 4.2 °F 7.0 °F 70% 30.37 in 10.0 mi South 8.1 mph - N/A   Clear
8:53 AM 25.0 °F 17.1 °F 12.0 °F 58% 30.35 in 10.0 mi South 6.9 mph - N/A   Clear
9:53 AM 32.0 °F 24.2 °F 14.0 °F 48% 30.36 in 10.0 mi South 9.2 mph - N/A   Clear
10:53 AM 39.0 °F 31.4 °F 15.1 °F 38% 30.33 in 10.0 mi SSW 12.7 mph - N/A   Clear
11:53 AM 43.0 °F 36.4 °F 16.0 °F 34% 30.28 in 10.0 mi SSW 12.7 mph 19.6 mph N/A   Clear
12:53 PM 46.0 °F 39.0 °F 16.0 °F 30% 30.24 in 10.0 mi SSW 17.3 mph 28.8 mph N/A   Clear
1:53 PM 50.0 °F - 17.1 °F 27% 30.20 in 10.0 mi SSW 16.1 mph 24.2 mph N/A   Clear
2:53 PM 50.0 °F - 15.1 °F 25% 30.19 in 10.0 mi SSW 19.6 mph 27.6 mph N/A   Clear
3:53 PM 48.0 °F - 15.1 °F 27% 30.18 in 10.0 mi South 12.7 mph - N/A   Clear
4:53 PM 46.0 °F 40.2 °F 16.0 °F 30% 30.17 in 10.0 mi South 12.7 mph - N/A   Clear
5:53 PM 41.0 °F 35.2 °F 17.1 °F 38% 30.17 in 10.0 mi South 9.2 mph - N/A   Clear
6:53 PM 39.9 °F 33.4 °F 18.0 °F 41% 30.17 in 10.0 mi South 10.4 mph - N/A   Clear
7:53 PM 36.0 °F 30.3 °F 18.0 °F 48% 30.18 in 10.0 mi South 6.9 mph - N/A   Clear
8:53 PM 36.0 °F 29.0 °F 17.1 °F 46% 30.19 in 10.0 mi South 9.2 mph - N/A   Clear
9:53 PM 36.0 °F 28.0 °F 15.1 °F 43% 30.17 in 10.0 mi South 11.5 mph - N/A   Clear
10:53 PM 35.1 °F 26.9 °F 15.1 °F 44% 30.17 in 10.0 mi South 11.5 mph - N/A   Clear
11:53 PM 34.0 °F 26.6 °F 15.1 °F 46% 30.17 in 10.0 mi South 9.2 mph - N/A   Clear